Location: Poughquag
(41.6090°N, 73.6820°W)
Time: 11:33:02
(UTC-04:00)

Tiros 1 - Pass Details

Date: 02 June 2020
Orbit: 630 x 664 km, 48.4° (Epoch: 06 July)

Event Time Altitude Azimuth Distance (km) Brightness Sun altitude
Rises 17:54:51 0° 297° (WNW) 2,948 11.7 25.2°
Reaches altitude 10° 17:57:11 10° 297° (WNW) 2,031 11.2 24.8°
Maximum altitude 18:01:51 78° 212° (SSW) 652 7.7 23.9°
Drops below altitude 10° 18:06:28 10° 126° (SE) 2,005 9.2 23.0°
Sets 18:08:47 0° 125° (SE) 2,907 10.0 22.6°
